Location: Castelbiague
(43.0361°N, 0.9246°E)
Time: 09:32:12
(UTC+00:00)

Cosmos 1812 Rocket - Pass Details

Date: 17 June 2021
Orbit: 606 x 631 km, 82.5° (Epoch: 27 July)

Event Time Altitude Azimuth Distance (km) Brightness Sun altitude
Rises 23:38:27 0° 358° (N) 2,877 8.5 -23.4°
Reaches altitude 10° 23:40:46 10° 5° (N) 1,971 7.2 -23.4°
Maximum altitude 23:44:56 44° 78° (ENE) 852 4.2 -23.5°
Enters shadow 23:45:18 43° 93° (E) 866 4.2 -23.5°
